Fort Myers Airport, FL

9:39 AM EDT on May 23, 2018 (GMT -0400)
Southwest Florida International

Weather History for KRSW - January, 2012

Change the Weather History Date:

Monday, January 2, 2012

  Actual Average Record
Temperature  
Mean Temperature 64 °F -  
Max Temperature 75 °F 76 °F 88 °F (1982)
Min Temperature 53 °F 55 °F 37 °F (1949)
Growing Degree Days 14 (Base 50)    
Moisture  
Dew Point 53 °F    
Average Humidity 78    
Maximum Humidity 100    
Minimum Humidity 36    
Precipitation  
Precipitation 0.00 in - - ()
Sea Level Pressure  
Sea Level Pressure 30.16 in    
Wind  
Wind Speed 3 mph (NW)    
Max Wind Speed 13 mph    
Max Gust Speed 21 mph    
Visibility 8 miles    
Events Fog    
Averages and records for this station are not official NWS values.
T = Trace of Precipitation, MM = Missing Value Source: NWS Daily Summary

Daily Weather History Graph

Daily Weather History Graph

Search for Another Location

Airport or City:

Astronomy

Jan. 02, 2012 Rise Set
Actual Time 7:15 AM EST 5:46 PM EST
Civil Twilight 6:50 AM EST 6:11 PM EST
Nautical Twilight 6:21 AM EST 6:40 PM EST
Astronomical Twilight 5:53 AM EST 7:08 PM EST
Moon 12:49 PM EST (1/2) 1:22 AM EST (1/2)
Length of Visible Light 11h 21m
Length of Day
10h 30m
Waxing Gibbous, 63% of the Moon is Illuminated
Jan 2
Waxing Gibbous
Jan 9
Full
Jan 16
Last Quarter
Jan 23
New
Jan 30
First Quarter

Hourly Weather History & Observations

Time (EST) Temp. Dew Point Humidity Pressure Visibility Wind Dir Wind Speed Gust Speed Precip Events Conditions
12:53 AM 60.1 °F 55.9 °F 86% 30.17 in 10.0 mi Calm Calm - N/A   Clear
1:53 AM 59.0 °F 57.0 °F 93% 30.15 in 10.0 mi Calm Calm - N/A   Clear
2:53 AM 57.0 °F 55.0 °F 93% 30.14 in 10.0 mi SSE 4.6 mph - N/A   Clear
3:53 AM 57.9 °F 55.9 °F 93% 30.13 in 7.0 mi Calm Calm - N/A   Clear
4:13 AM 57.2 °F 57.2 °F 100% 30.14 in 1.8 mi Calm Calm - N/A   Clear
4:22 AM 57.2 °F 55.4 °F 94% 30.14 in 3.0 mi Calm Calm - N/A   Clear
4:33 AM 57.2 °F 55.4 °F 94% 30.14 in 6.0 mi Calm Calm - N/A   Scattered Clouds
4:38 AM 57.2 °F 55.4 °F 94% 30.13 in 2.5 mi Calm Calm - N/A   Mostly Cloudy
4:45 AM 57.2 °F 55.4 °F 94% 30.13 in 1.0 mi Calm Calm - N/A   Mist
4:53 AM 57.9 °F 55.9 °F 93% 30.13 in 0.5 mi Calm Calm - N/A Fog Fog
5:07 AM 57.2 °F 55.4 °F 94% 30.14 in 1.0 mi Calm Calm - N/A   Clear
5:10 AM 57.2 °F 55.4 °F 94% 30.14 in 4.0 mi Calm Calm - N/A   Clear
5:48 AM 57.2 °F 55.4 °F 94% 30.14 in 2.5 mi Calm Calm - N/A   Clear
5:53 AM 57.0 °F 55.0 °F 93% 30.14 in 10.0 mi Calm Calm - N/A   Clear
6:53 AM 57.9 °F 55.9 °F 93% 30.14 in 10.0 mi Calm Calm - N/A Fog Patches of Fog
7:53 AM 59.0 °F 57.0 °F 93% 30.15 in 9.0 mi Calm Calm - 0.00 in   Clear
8:53 AM 66.0 °F 64.0 °F 93% 30.15 in 10.0 mi Calm Calm - N/A   Clear
9:53 AM 71.6 °F 62.6 °F 73% 30.18 in 10.0 mi West 8.1 mph - N/A   Partly Cloudy
10:53 AM 75.2 °F 62.6 °F 65% 30.17 in 10.0 mi West 11.5 mph - N/A   Mostly Cloudy
11:53 AM 72.0 °F 63.0 °F 73% 30.15 in 10.0 mi NNW 9.2 mph 16.1 mph N/A   Overcast
12:53 PM 73.0 °F 62.1 °F 68% 30.12 in 10.0 mi NW 9.2 mph - N/A   Mostly Cloudy
1:53 PM 72.0 °F 60.1 °F 66% 30.10 in 10.0 mi North 6.9 mph - N/A   Overcast
2:53 PM 71.1 °F 57.0 °F 61% 30.10 in 10.0 mi NW 8.1 mph - N/A   Scattered Clouds
3:53 PM 70.0 °F 55.0 °F 59% 30.12 in 10.0 mi NW 12.7 mph 18.4 mph N/A   Mostly Cloudy
4:53 PM 66.9 °F 39.0 °F 36% 30.14 in 10.0 mi NNW 10.4 mph - N/A   Clear
5:53 PM 63.0 °F 44.1 °F 50% 30.17 in 10.0 mi NW 10.4 mph 20.7 mph N/A   Clear
6:53 PM 60.1 °F 36.0 °F 41% 30.20 in 10.0 mi NNW 10.4 mph - N/A   Clear
7:53 PM 55.9 °F 39.9 °F 55% 30.22 in 10.0 mi NNW 12.7 mph 19.6 mph N/A   Clear
8:53 PM 55.0 °F 42.1 °F 62% 30.24 in 10.0 mi NNW 11.5 mph 18.4 mph N/A   Clear
9:53 PM 54.0 °F 43.0 °F 66% 30.25 in 10.0 mi NNW 8.1 mph - N/A   Clear
10:53 PM 54.0 °F 43.0 °F 66% 30.25 in 10.0 mi NNW 5.8 mph - N/A   Clear
11:53 PM 53.1 °F 42.1 °F 66% 30.24 in 10.0 mi NNW 5.8 mph - N/A   Clear